Showing default

YURI (BSE), 10792

Orbit data source: Space-Track

YURI (BSE), 10792 is a payload satellite owned by NASDA (JP) in GEO that was launched on Fri, 07 Apr 1978 UTC via a DELTA 2914 launch vehicle from the Air Force Eastern Test Range (AFETR). Payload-class satellites include a variety of spacecraft equipped with specific instruments for various scientific and technological missions. These include communications satellites like Starlink; space stations such as the ISS; scientific satellites like the Hubble; Earth observation satellites from companies like Planet Labs, Umbra, and HawkEye 360; GPS; miniature CubeSats for education and research; and military/defense satellites.

Not visible in the next 10 days
Identifier
10792, 1978-039A
Orbit
GEO
Country
Flag of JPJP / JPN
Related business
Manufacturer
GEVF/TOSH
Mission
Non-operational spacecraft
Bus & Motor
BS, STAR 27
Mass
678 kg wet, ~295 kg dry
Launch date (UTC)
1978-04-07 (48 years ago)
Launch vehicle
DELTA 2914
Launch site
Air Force Eastern Test Range (AFETR)
Object type
Payload
Rocket body
Debris
Shape & HBR
Unknown
Radar Cross Section
Large (>1 m²)

Expand to show TLE details & history
Last TLE update: 1 day ago

TLE from 1 day ago
0 YURI (BSE)
1 10792U 78039A   25302.40302942 -.00000297  00000-0  00000-0 0  9991
2 10792   6.0512 286.3901 0022592 312.0834  44.7023  1.00224695116440
Epoch: 2025-10-29T09:40Z
TLE epoch observation values (Epoch: 2025-10-29T09:40:21.741Z)
Latitude
-0.3092°
Longitude
100.27043°
Altitude
35,731.701 km
Speed
3.079 km/s
True Right ascension
18h 53m 21s
True Declination
0° 18' 32"
Sunlit
Object was in daylight at epoch
Visualization orbit readout
Latitude
Unknown
Longitude
Unknown
Altitude
Unknown
Speed
Unknown
Apparent Right ascension
Unknown
Apparent Declination
Unknown
Sunlit
N/A
Visualization observer readout
Local Sidereal Time
10:51:38
Azimuth
Unknown
Elevation
Unknown
Doppler factor
Unknown
Orbital elements
Apogee altitude
35,896.145 km
Perigee altitude
35,705.563 km
Semi-major axis
42,178.991 km
Eccentricity
0.00226
Inclination
6.0512°
RAAN
286.3901°
Arg. of periapsis
312.0834°
True anomaly
44.88477°
Mean anomaly
44.7023°
Eccentric anomaly
44.7935°
Mean motion
0.25055 °/min
Orbital period
1,436.82 mins
BSTAR
0
Loading maneuver chart data...
Computing Atmospheric mass density...
Loading historical data...
Loading historical data...
Loading historical data...
Loading historical data...
Loading historical data...
Loading historical data...
Loading historical data...
Other satellites on launch #39 in the year 1978 (1978-04-07 UTC)

Documentation

Showing up to 5 results
|